This is the latest recevied weather packets stored in our database for station/object IK5UIK-3. If no packets are shown the sender has not sent any weather packets the latest 10 day(s).
| Time | Temp. | Humidity | Pressure | Rain* | Wind** | Luminosity | Snow |
|---|---|---|---|---|---|---|---|
| 1787556582 | 24.44° C | 74% | 1011 hPa | 0 mm | - | - | - |
| 1787556279 | 23.89° C | 75% | 1011 hPa | 0 mm | - | - | - |
| 1787555983 | 23.89° C | 75% | 1011.3 hPa | 0 mm | - | - | - |
| 1787555919 | 23.89° C | 75% | 1011.3 hPa | 0 mm | - | - | - |
| 1787555682 | 23.33° C | 76% | 1011.2 hPa | 0 mm | - | - | - |
| 1787555559 | 23.33° C | 77% | 1011.3 hPa | 0 mm | - | - | - |
| 1787555199 | 22.78° C | 77% | 1011.3 hPa | 0 mm | - | - | - |
| 1787555083 | 22.78° C | 77% | 1011.4 hPa | 0 mm | - | - | - |
| 1787554839 | 22.22° C | 79% | 1011.3 hPa | 0 mm | - | - | - |
| 1787554784 | 22.22° C | 79% | 1011.2 hPa | 0 mm | - | - | - |
| 1787554479 | 22.22° C | 79% | 1011.2 hPa | 0 mm | - | - | - |
| 1787554182 | 21.11° C | 81% | 1011.3 hPa | 0 mm | - | - | - |
| 1787554119 | 21.11° C | 81% | 1011.2 hPa | 0 mm | - | - | - |
| 1787553883 | 21.11° C | 81% | 1011.4 hPa | 0 mm | - | - | - |
| 1787553759 | 21.11° C | 81% | 1011.4 hPa | 0 mm | - | - | - |
| 1787553582 | 20.56° C | 82% | 1011.4 hPa | 0 mm | - | - | - |
| 1787553399 | 20.56° C | 82% | 1011.4 hPa | 0 mm | - | - | - |
| 1787553039 | 20° C | 82% | 1011.4 hPa | 0 mm | - | - | - |
| 1787552982 | 20° C | 82% | 1011.3 hPa | 0 mm | - | - | - |
| 1787552679 | 20° C | 83% | 1011.3 hPa | 0 mm | - | - | - |
| 1787552319 | 19.44° C | 83% | 1011.3 hPa | 0 mm | - | - | - |
| 1787552084 | 19.44° C | 84% | 1011.3 hPa | 0 mm | - | - | - |
| 1787551959 | 18.89° C | 84% | 1011.3 hPa | 0 mm | - | - | - |
| 1787551785 | 18.89° C | 84% | 1011.3 hPa | 0 mm | - | - | - |
| 1787551484 | 18.89° C | 84% | 1011.3 hPa | 0 mm | - | - | - |
* Rain latest hour (hover to see other rain measurements)
** Current wind speed in m/s (hover to see current wind gust speed)